Port Angeles, WA

10:56 AM PDT on July 23, 2017 (GMT -0700)
Fairchild International

Weather History for KCLM - January, 2013

Change the Weather History Date:

Wednesday, January 23, 2013

  Actual Average Record
Temperature  
Mean Temperature 41 °F -  
Max Temperature 45 °F 47 °F 60 °F (1973)
Min Temperature 37 °F 36 °F 13 °F (1969)
Degree Days  
Heating Degree Days 24    
Moisture  
Dew Point 37 °F    
Average Humidity 87    
Maximum Humidity 97    
Minimum Humidity 74    
Precipitation  
Precipitation 0.01 in - - ()
Sea Level Pressure  
Sea Level Pressure 29.90 in    
Wind  
Wind Speed 3 mph (WSW)    
Max Wind Speed 13 mph    
Max Gust Speed 20 mph    
Visibility 10 miles    
Events Rain    
Averages and records for this station are not official NWS values.
T = Trace of Precipitation, MM = Missing Value Source: NWS Daily Summary

Daily Weather History Graph

Daily Weather History Graph

Search for Another Location

Airport or City:

Trip Planner

Search our weather history database for the weather conditions in past years. The results will help you decide how hot, cold, wet, or windy it might be!

Date:

Astronomy

Jan. 23, 2013 Rise Set
Actual Time 7:52 AM PST 5:00 PM PST
Civil Twilight 7:17 AM PST 5:34 PM PST
Nautical Twilight 6:39 AM PST 6:12 PM PST
Astronomical Twilight 6:03 AM PST 6:49 PM PST
Moon 2:11 PM PST 5:12 AM PST
Length of Visible Light 10h 16m
Length of Day
9h 08m
Waxing Gibbous, 90% of the Moon is Illuminated
Jan 23
Waxing Gibbous
Jan 26
Full
Feb 3
Last Quarter
Feb 9
New
Feb 17
First Quarter

Hourly Weather History & Observations

Time (PST) Temp. Windchill Dew Point Humidity Pressure Visibility Wind Dir Wind Speed Gust Speed Precip Events Conditions
12:53 AM 37.0 °F 33.3 °F 33.1 °F 86% 29.93 in 10.0 mi SW 4.6 mph - N/A   Overcast
1:53 AM 37.0 °F 33.3 °F 33.1 °F 86% 29.92 in 10.0 mi SSW 4.6 mph - N/A   Overcast
2:53 AM 39.0 °F 34.0 °F 34.0 °F 82% 29.93 in 10.0 mi SSE 6.9 mph - N/A   Overcast
3:53 AM 39.9 °F - 36.0 °F 86% 29.91 in 10.0 mi Calm Calm - 0.00 in   Overcast
4:32 AM 39.9 °F - 36.0 °F 86% 29.89 in 10.0 mi Calm Calm - 0.00 in   Overcast
4:53 AM 39.0 °F 35.7 °F 36.0 °F 89% 29.88 in 10.0 mi South 4.6 mph - 0.00 in   Overcast
5:12 AM 39.0 °F 36.8 °F 36.0 °F 89% 29.86 in 10.0 mi South 3.5 mph - N/A   Overcast
5:53 AM 39.0 °F - 36.0 °F 89% 29.87 in 10.0 mi Calm Calm - N/A   Overcast
6:53 AM 37.9 °F - 37.0 °F 97% 29.86 in 10.0 mi Calm Calm - 0.00 in   Overcast
7:12 AM 37.9 °F 35.5 °F 36.0 °F 93% 29.86 in 10.0 mi SW 3.5 mph - N/A   Overcast
7:42 AM 39.0 °F - 36.0 °F 89% 29.86 in 10.0 mi Calm Calm - N/A   Overcast
7:53 AM 39.0 °F - 36.0 °F 89% 29.86 in 10.0 mi Calm Calm - N/A   Overcast
8:53 AM 39.9 °F - 37.0 °F 89% 29.86 in 10.0 mi Calm Calm - 0.00 in   Overcast
9:24 AM 39.9 °F - 37.9 °F 93% 29.84 in 9.0 mi Calm Calm - N/A   Overcast
9:53 AM 41.0 °F - 37.9 °F 89% 29.84 in 10.0 mi Calm Calm - N/A   Overcast
10:53 AM 42.1 °F - 37.9 °F 85% 29.84 in 10.0 mi Calm Calm - N/A   Overcast
11:19 AM 43.0 °F - 37.9 °F 82% 29.83 in 10.0 mi Calm Calm - N/A   Overcast
11:53 AM 43.0 °F - 37.9 °F 82% 29.83 in 10.0 mi Calm Calm - N/A   Overcast
12:53 PM 43.0 °F - 39.0 °F 86% 29.82 in 10.0 mi Calm Calm - N/A   Overcast
1:53 PM 42.8 °F - 39.2 °F 87% 29.82 in 10.0 mi Calm Calm - N/A Rain Light Rain
2:53 PM 43.0 °F - 39.9 °F 89% 29.85 in 3.0 mi Calm Calm - 0.01 in Rain Light Rain
3:53 PM 43.0 °F 39.5 °F 41.0 °F 93% 29.88 in 5.0 mi NW 5.8 mph - 0.00 in Rain Light Rain
4:53 PM 43.0 °F 38.8 °F 39.9 °F 89% 29.89 in 10.0 mi SW 6.9 mph - 0.00 in Rain Light Rain
5:53 PM 44.1 °F 38.1 °F 39.9 °F 85% 29.91 in 10.0 mi West 11.5 mph - 0.00 in Rain Light Rain
6:53 PM 43.0 °F 38.2 °F 39.9 °F 89% 29.94 in 10.0 mi West 8.1 mph - 0.00 in   Overcast
7:53 PM 45.0 °F 40.6 °F 39.0 °F 80% 29.98 in 10.0 mi West 8.1 mph 18.4 mph N/A   Overcast
8:53 PM 45.0 °F 38.9 °F 37.0 °F 74% 30.01 in 10.0 mi West 12.7 mph - N/A   Scattered Clouds
9:53 PM 43.0 °F 37.2 °F 36.0 °F 76% 30.05 in 10.0 mi WSW 10.4 mph 19.6 mph N/A   Clear
10:53 PM 39.9 °F 33.9 °F 35.1 °F 83% 30.08 in 10.0 mi WSW 9.2 mph - N/A   Clear
11:53 PM 39.9 °F 33.4 °F 35.1 °F 83% 30.11 in 10.0 mi WSW 10.4 mph - N/A   Clear